Погода в Касторной-Курской

Россия / Курская область     51°49′16″N   38°05′35″E
темп.,
°C
ветер,
м/с
пор.,
м/с
влажн.,
%
обл.,
%
осадки,
мм/ч
давл.,
гПа
погр.,
м
3 марта, ср
ср300:000ссз61197100 0.3 1013624
03:00−1ссз7139294 0.5 1014660
06:00−1ссз71390100 0.0 1015833
09:00−3ссз7138997 0.1 1018766
12:00−2ссз7108388 0.0 1020829
15:00−1сз598352 0.0 1020832
18:00−2з4109138 0.0 1020274
21:00−2з6139219 0.0 1020363
4 марта, чт
чт400:00−2з5129336 0.0 1018426
03:00−3зюз6129354 0.0 1017358
06:00−2зюз7139139 0.0 1014349
09:00−1зюз7148630 0.0 1013412
12:00+1зюз815800 0.0 1010665
15:00+2юз716810 0.0 1008702
18:00+2юз6168426 0.0 1005632
21:00+2зюз7169261 0.0 1004592
5 марта, пт
пт500:00+2зюз71494100 0.1 1003543
03:00+1з61395100 0.2 1003603
06:000з61197100 0.1 1005563
09:00−1ссз4696100 1.4 1007422
12:00−1с239399 0.2 1009308
15:00−1ссв338999 0.3 1010405
18:00−2ссв3591100 0.1 1010393
21:00−2ссв4686100 0.1 1012385
6 марта, сб
сб600:00−3ссв4782100 0.0 1013407
03:00−5с479085 0.0 1015328
06:00−6с358884 0.0 1016247
09:00−6ссз348368 0.0 1017226
12:00−4ссз23680 0.0 1017468
15:00−3сз236332 0.0 1017742
18:00−4ссз117511 0.0 101750
21:00−5всв118031 0.0 101925
7 марта, вс
вс700:00−6с359393 0.4 1020342
03:00−7зюз358773 0.4 1020181
06:00−6юз612740 0.0 1018523
09:00−5юз8156440 0.0 1015828
12:00−2юз111757100 0.0 10131119
15:00−1зюз111858100 0.0 10091368
18:00−1зюз91769100 0.0 10071250
21:00−2зюз8167590 0.0 1006909